Location: Innerarity Island Observatory
(30.3139°N, 87.4867°W)
Time: 15:08:45
(UTC-05:00)

JAS-2 - Visible Passes

Search period start: 25 July 2016 00:00
Search period end: 04 August 2016 00:00
Orbit: 799 x 1322 km, 98.6° (Epoch: 25 July)

Date Brightness Start Highest point End Pass type
(mag) Time Alt. Az. Time Alt. Az. Time Alt. Az.
25 Jul 11.1 01:41:36 10° N 01:43:47 25° N 01:43:47 25° N visible
26 Jul 11.5 00:46:41 10° NNE 00:47:57 17° NE 00:47:57 17° NE visible
26 Jul 11.4 02:32:57 10° NNW 02:34:26 15° NW 02:34:26 15° NW visible
27 Jul 11.1 01:36:29 10° N 01:38:37 25° N 01:38:37 25° N visible
28 Jul 11.6 00:41:41 10° NNE 00:42:47 16° NE 00:42:47 16° NE visible
28 Jul 11.4 02:27:39 10° NNW 02:29:16 16° NW 02:29:16 16° NW visible
29 Jul 11.2 01:31:22 10° N 01:33:27 25° N 01:33:27 25° N visible
30 Jul 11.7 00:36:41 10° NNE 00:37:37 15° NE 00:37:37 15° NE visible
30 Jul 11.4 02:22:23 10° NNW 02:24:06 17° NW 02:24:06 17° NW visible
31 Jul 11.3 01:26:15 10° N 01:28:17 24° N 01:28:17 24° N visible
01 Aug 11.8 00:31:41 10° NE 00:32:29 14° NE 00:32:29 14° NE visible
01 Aug 11.4 02:17:08 10° NNW 02:18:56 18° NNW 02:18:56 18° NNW visible
02 Aug 11.3 01:21:09 10° N 01:23:08 24° N 01:23:08 24° N visible
03 Aug 11.8 00:26:43 10° NE 00:27:19 13° NE 00:27:19 13° NE visible
03 Aug 11.4 02:11:54 10° NNW 02:13:47 19° NNW 02:13:47 19° NNW visible
